| time (UTC) | temp F | wind direction | speed MPH | gust MPH | rain 1hr in | rain 24hr in | rain mn in | humidity % | barometer mb |
| 20260510214903 | 73 | 240 | 2.0 | 9.0 | 0.00 | 0.00 | 0.00 | 56 | 1009.5 |
| 20260510214350 | 74 | 296 | 4.0 | 9.0 | 0.00 | 0.00 | 0.00 | 56 | 1009.4 |
| 20260510213916 | 74 | 320 | 3.0 | 10.0 | 0.00 | 0.00 | 0.00 | 56 | 1009.4 |
| 20260510213359 | 75 | 274 | 3.0 | 10.0 | 0.00 | 0.00 | 0.00 | 56 | 1009.4 |
| 20260510212846 | 74 | 280 | 2.0 | 9.0 | 0.00 | 0.00 | 0.00 | 57 | 1009.4 |
| 20260510212413 | 74 | 226 | 2.0 | 10.0 | 0.00 | 0.00 | 0.00 | 56 | 1009.4 |
| 20260510211915 | 75 | 237 | 2.0 | 10.0 | 0.00 | 0.00 | 0.00 | 56 | 1009.5 |
| 20260510211400 | 75 | 219 | 2.0 | 7.0 | 0.00 | 0.00 | 0.00 | 56 | 1009.4 |
| 20260510210846 | 74 | 224 | 2.0 | 6.0 | 0.00 | 0.00 | 0.00 | 57 | 1009.3 |
| 20260510210405 | 74 | 227 | 3.0 | 8.0 | 0.00 | 0.00 | 0.00 | 57 | 1009.3 |
| 20260510205858 | 74 | 290 | 3.0 | 8.0 | 0.00 | 0.00 | 0.00 | 58 | 1009.2 |
| 20260510205405 | 73 | 323 | 3.0 | 8.0 | 0.00 | 0.00 | 0.00 | 58 | 1009.2 |
| 20260510204847 | 73 | 295 | 3.0 | 7.0 | 0.00 | 0.00 | 0.00 | 58 | 1009.3 |
| 20260510204352 | 73 | 234 | 3.0 | 7.0 | 0.00 | 0.00 | 0.00 | 59 | 1009.2 |
| 20260510203857 | 74 | 280 | 2.0 | 7.0 | 0.00 | 0.00 | 0.00 | 60 | 1009.3 |
| 20260510203402 | 74 | 261 | 2.0 | 7.0 | 0.00 | 0.00 | 0.00 | 61 | 1009.2 |
| 20260510202850 | 74 | 266 | 2.0 | 7.0 | 0.00 | 0.00 | 0.00 | 59 | 1009.3 |
| 20260510202355 | 75 | 245 | 2.0 | 9.0 | 0.00 | 0.00 | 0.00 | 59 | 1009.2 |
| 20260510201859 | 75 | 229 | 5.0 | 9.0 | 0.00 | 0.00 | 0.00 | 59 | 1009.2 |
| 20260510201404 | 75 | 213 | 3.0 | 9.0 | 0.00 | 0.00 | 0.00 | 59 | 1009.2 |
| 20260510200849 | 74 | 232 | 3.0 | 9.0 | 0.00 | 0.00 | 0.00 | 60 | 1009.3 |
| 20260510200408 | 74 | 326 | 1.0 | 9.0 | 0.00 | 0.00 | 0.00 | 61 | 1009.5 |
| 20260510195859 | 74 | 286 | 2.0 | 9.0 | 0.00 | 0.00 | 0.00 | 61 | 1009.5 |
| 20260510195346 | 74 | 272 | 3.0 | 8.0 | 0.00 | 0.00 | 0.00 | 61 | 1009.6 |
| 20260510194851 | 73 | 250 | 3.0 | 11.0 | 0.00 | 0.00 | 0.00 | 61 | 1009.6 |
| 20260510194357 | 74 | 244 | 5.0 | 11.0 | 0.00 | 0.00 | 0.00 | 60 | 1009.9 |
| 20260510193844 | 73 | 239 | 3.0 | 8.0 | 0.00 | 0.00 | 0.00 | 63 | 1009.8 |
| 20260510193348 | 73 | 288 | 3.0 | 9.0 | 0.00 | 0.00 | 0.00 | 64 | 1009.7 |
| 20260510192913 | 72 | 313 | 3.0 | 9.0 | 0.00 | 0.00 | 0.00 | 64 | 1009.8 |
| 20260510192359 | 72 | 206 | 3.0 | 10.0 | 0.00 | 0.00 | 0.00 | 64 | 1010.0 |
| 20260510191903 | 72 | 266 | 4.0 | 10.0 | 0.00 | 0.00 | 0.00 | 64 | 1010.0 |
| 20260510191350 | 72 | 224 | 2.0 | 13.0 | 0.00 | 0.00 | 0.00 | 65 | 1010.1 |
| 20260510190856 | 72 | 227 | 6.0 | 13.0 | 0.00 | 0.00 | 0.00 | 64 | 1010.1 |
| 20260510190356 | 72 | 238 | 4.0 | 11.0 | 0.00 | 0.00 | 0.00 | 63 | 1010.0 |
| 20260510185847 | 72 | 219 | 3.0 | 7.0 | 0.00 | 0.00 | 0.00 | 63 | 1010.0 |
| 20260510185354 | 72 | 341 | 1.0 | 6.0 | 0.00 | 0.00 | 0.00 | 64 | 1010.0 |
| 20260510184859 | 72 | 263 | 3.0 | 8.0 | 0.00 | 0.00 | 0.00 | 63 | 1010.0 |
| 20260510184348 | 72 | 286 | 2.0 | 9.0 | 0.00 | 0.00 | 0.00 | 63 | 1010.2 |
| 20260510183855 | 72 | 250 | 2.0 | 9.0 | 0.00 | 0.00 | 0.00 | 64 | 1010.2 |
| 20260510183401 | 72 | 271 | 1.0 | 6.0 | 0.00 | 0.00 | 0.00 | 64 | 1010.3 |
| 20260510182846 | 72 | 267 | 3.0 | 9.0 | 0.00 | 0.00 | 0.00 | 63 | 1010.4 |
| 20260510182353 | 72 | 273 | 2.0 | 8.0 | 0.00 | 0.00 | 0.00 | 63 | 1010.5 |
| 20260510181857 | 72 | 204 | 4.0 | 8.0 | 0.00 | 0.00 | 0.00 | 62 | 1010.5 |
| 20260510181343 | 72 | 240 | 1.0 | 7.0 | 0.00 | 0.00 | 0.00 | 63 | 1010.6 |
| 20260510180851 | 73 | 306 | 1.0 | 14.0 | 0.00 | 0.00 | 0.00 | 62 | 1010.5 |
| 20260510180354 | 72 | 230 | 2.0 | 14.0 | 0.00 | 0.00 | 0.00 | 63 | 1010.7 |
| 20260510175921 | 72 | 355 | 4.0 | 13.0 | 0.00 | 0.00 | 0.00 | 64 | 1010.6 |
| 20260510175409 | 72 | 313 | 4.0 | 11.0 | 0.00 | 0.00 | 0.00 | 65 | 1010.7 |
| 20260510174854 | 71 | 319 | 4.0 | 11.0 | 0.00 | 0.00 | 0.00 | 67 | 1010.7 |
| 20260510174401 | 70 | 263 | 3.0 | 11.0 | 0.00 | 0.00 | 0.00 | 67 | 1010.7 |
| 20260510173845 | 70 | 293 | 1.0 | 9.0 | 0.00 | 0.00 | 0.00 | 68 | 1010.8 |
| 20260510173350 | 70 | 259 | 3.0 | 9.0 | 0.00 | 0.00 | 0.00 | 67 | 1010.9 |
| 20260510172856 | 70 | 241 | 2.0 | 9.0 | 0.00 | 0.00 | 0.00 | 68 | 1010.9 |
| 20260510172422 | 70 | 238 | 3.0 | 8.0 | 0.00 | 0.00 | 0.00 | 67 | 1010.9 |
| 20260510171844 | 70 | 236 | 2.0 | 11.0 | 0.00 | 0.00 | 0.00 | 67 | 1011.0 |
| 20260510171350 | 71 | 230 | 1.0 | 8.0 | 0.00 | 0.00 | 0.00 | 66 | 1010.9 |
| 20260510170857 | 71 | 238 | 3.0 | 8.0 | 0.00 | 0.00 | 0.00 | 67 | 1010.9 |
| 20260510170355 | 71 | 257 | 3.0 | 9.0 | 0.00 | 0.00 | 0.00 | 67 | 1011.0 |
| 20260510165845 | 70 | 211 | 5.0 | 9.0 | 0.00 | 0.00 | 0.00 | 66 | 1011.0 |
| 20260510165349 | 70 | 282 | 1.0 | 11.0 | 0.00 | 0.00 | 0.00 | 67 | 1011.0 |
| 20260510164853 | 70 | 300 | 4.0 | 12.0 | 0.00 | 0.00 | 0.00 | 67 | 1011.1 |
| 20260510164400 | 70 | 274 | 3.0 | 8.0 | 0.00 | 0.00 | 0.00 | 68 | 1011.1 |
| 20260510163848 | 69 | 261 | 3.0 | 9.0 | 0.00 | 0.00 | 0.00 | 68 | 1011.3 |
| 20260510163350 | 69 | 201 | 3.0 | 10.0 | 0.00 | 0.00 | 0.00 | 69 | 1011.4 |
| 20260510162856 | 69 | 231 | 3.0 | 8.0 | 0.00 | 0.00 | 0.00 | 71 | 1011.3 |
| 20260510162343 | 68 | 294 | 4.0 | 8.0 | 0.00 | 0.00 | 0.00 | 72 | 1011.6 |
| 20260510161848 | 68 | 188 | 3.0 | 11.0 | 0.00 | 0.00 | 0.00 | 73 | 1011.6 |
| 20260510161353 | 68 | 236 | 4.0 | 11.0 | 0.00 | 0.00 | 0.00 | 73 | 1011.6 |
| 20260510160902 | 67 | 250 | 1.0 | 7.0 | 0.00 | 0.00 | 0.00 | 75 | 1011.6 |
| 20260510160414 | 67 | 237 | 1.0 | 5.0 | 0.00 | 0.00 | 0.00 | 77 | 1011.6 |
| 20260510155858 | 66 | 237 | 2.0 | 9.0 | 0.00 | 0.00 | 0.00 | 77 | 1011.6 |
| 20260510155346 | 65 | 237 | 1.0 | 9.0 | 0.00 | 0.00 | 0.00 | 77 | 1011.5 |
| 20260510154851 | 65 | 240 | 1.0 | 7.0 | 0.00 | 0.00 | 0.00 | 77 | 1011.5 |
| 20260510154356 | 65 | 240 | 1.0 | 7.0 | 0.00 | 0.00 | 0.00 | 78 | 1011.6 |
| 20260510153844 | 65 | 228 | 0.0 | 4.0 | 0.00 | 0.00 | 0.00 | 79 | 1011.6 |
| 20260510153351 | 64 | 228 | 1.0 | 9.0 | 0.00 | 0.00 | 0.00 | 79 | 1011.6 |
| 20260510152858 | 64 | 228 | 4.0 | 9.0 | 0.00 | 0.00 | 0.00 | 80 | 1011.7 |
| 20260510152346 | 63 | 255 | 2.0 | 6.0 | 0.00 | 0.00 | 0.00 | 81 | 1011.7 |
| 20260510151910 | 63 | 254 | 2.0 | 6.0 | 0.00 | 0.00 | 0.00 | 82 | 1011.8 |
| 20260510151354 | 62 | 253 | 1.0 | 6.0 | 0.00 | 0.00 | 0.00 | 83 | 1011.8 |
| 20260510150922 | 62 | 248 | 2.0 | 5.0 | 0.00 | 0.00 | 0.00 | 83 | 1011.8 |
| 20260510150402 | 61 | 248 | 2.0 | 5.0 | 0.00 | 0.00 | 0.00 | 83 | 1011.8 |
| 20260510145854 | 61 | 248 | 1.0 | 5.0 | 0.00 | 0.00 | 0.00 | 83 | 1011.8 |
| 20260510145403 | 61 | 248 | 2.0 | 5.0 | 0.00 | 0.00 | 0.00 | 83 | 1011.7 |
| 20260510144847 | 61 | 248 | 0.0 | 3.0 | 0.00 | 0.00 | 0.00 | 83 | 1011.8 |
| 20260510144354 | 61 | 248 | 0.0 | 6.0 | 0.00 | 0.00 | 0.00 | 83 | 1011.8 |
| 20260510143901 | 60 | 248 | 2.0 | 6.0 | 0.00 | 0.00 | 0.00 | 83 | 1012.0 |
| 20260510143347 | 60 | 251 | 2.0 | 6.0 | 0.00 | 0.00 | 0.00 | 83 | 1012.1 |
| 20260510142853 | 60 | 252 | 1.0 | 5.0 | 0.00 | 0.00 | 0.00 | 84 | 1012.1 |
| 20260510142420 | 60 | 253 | 2.0 | 5.0 | 0.00 | 0.00 | 0.00 | 84 | 1012.1 |
| 20260510141844 | 60 | 253 | 1.0 | 4.0 | 0.00 | 0.00 | 0.00 | 84 | 1012.0 |
| 20260510141350 | 60 | 253 | 1.0 | 5.0 | 0.00 | 0.00 | 0.00 | 85 | 1012.1 |
| 20260510140857 | 60 | 253 | 2.0 | 5.0 | 0.00 | 0.00 | 0.00 | 85 | 1012.1 |
| 20260510140419 | 60 | 252 | 2.0 | 4.0 | 0.00 | 0.00 | 0.00 | 85 | 1012.1 |
| 20260510135847 | 60 | 252 | 2.0 | 5.0 | 0.00 | 0.00 | 0.00 | 85 | 1012.1 |
| 20260510135353 | 60 | 252 | 3.0 | 6.0 | 0.00 | 0.00 | 0.00 | 86 | 1012.0 |
| 20260510134856 | 60 | 254 | 3.0 | 6.0 | 0.00 | 0.00 | 0.00 | 87 | 1012.0 |
| 20260510134420 | 59 | 256 | 1.0 | 5.0 | 0.00 | 0.00 | 0.00 | 88 | 1011.9 |
| 20260510133846 | 59 | 257 | 1.0 | 5.0 | 0.00 | 0.00 | 0.00 | 90 | 1011.9 |
| 20260510133349 | 59 | 257 | 1.0 | 7.0 | 0.00 | 0.00 | 0.00 | 90 | 1011.9 |
| 20260510132855 | 58 | 257 | 0.0 | 7.0 | 0.00 | 0.00 | 0.00 | 91 | 1011.8 |
| 20260510132343 | 58 | 265 | 2.0 | 6.0 | 0.00 | 0.00 | 0.00 | 92 | 1011.9 |
| 20260510131847 | 57 | 267 | 2.0 | 6.0 | 0.00 | 0.00 | 0.00 | 92 | 1011.9 |
| 20260510131354 | 57 | 264 | 1.0 | 5.0 | 0.00 | 0.00 | 0.00 | 93 | 1011.8 |
| 20260510130900 | 56 | 265 | 2.0 | 6.0 | 0.00 | 0.00 | 0.00 | 93 | 1011.8 |
| 20260510130358 | 56 | 265 | 0.0 | 6.0 | 0.00 | 0.00 | 0.00 | 93 | 1011.8 |
| 20260510125849 | 56 | 261 | 1.0 | 6.0 | 0.00 | 0.00 | 0.00 | 94 | 1011.7 |
| 20260510125356 | 55 | 261 | 1.0 | 6.0 | 0.00 | 0.00 | 0.00 | 94 | 1011.8 |
| 20260510124900 | 55 | 261 | 2.0 | 7.0 | 0.00 | 0.00 | 0.00 | 94 | 1011.9 |
| 20260510124349 | 55 | 261 | 2.0 | 7.0 | 0.00 | 0.00 | 0.00 | 94 | 1012.0 |
| 20260510123856 | 55 | 260 | 2.0 | 5.0 | 0.00 | 0.00 | 0.00 | 94 | 1012.1 |
| 20260510123343 | 55 | 261 | 1.0 | 5.0 | 0.00 | 0.00 | 0.00 | 94 | 1012.1 |
| 20260510122849 | 55 | 259 | 1.0 | 7.0 | 0.00 | 0.00 | 0.00 | 94 | 1012.1 |
| 20260510122355 | 55 | 259 | 1.0 | 7.0 | 0.00 | 0.00 | 0.00 | 94 | 1012.1 |
| 20260510121842 | 54 | 244 | 2.0 | 6.0 | 0.00 | 0.00 | 0.00 | 95 | 1012.0 |
| 20260510121348 | 54 | 233 | 1.0 | 5.0 | 0.00 | 0.00 | 0.00 | 95 | 1012.0 |
| 20260510120854 | 54 | 228 | 1.0 | 4.0 | 0.00 | 0.00 | 0.00 | 95 | 1012.0 |
| 20260510120341 | 54 | 227 | 0.0 | 3.0 | 0.00 | 0.00 | 0.00 | 95 | 1012.0 |
| 20260510115850 | 54 | 227 | 0.0 | 3.0 | 0.00 | 0.00 | 0.00 | 95 | 1012.0 |
| 20260510115416 | 54 | 227 | 0.0 | 3.0 | 0.00 | 0.00 | 0.00 | 95 | 1012.0 |
| 20260510114857 | 54 | 225 | 0.0 | 3.0 | 0.00 | 0.00 | 0.00 | 95 | 1012.0 |
| 20260510114345 | 54 | 225 | 0.0 | 4.0 | 0.00 | 0.00 | 0.00 | 95 | 1011.7 |
| 20260510113853 | 54 | 225 | 0.0 | 3.0 | 0.00 | 0.00 | 0.00 | 95 | 1011.6 |
| 20260510113356 | 54 | 225 | 0.0 | 6.0 | 0.00 | 0.00 | 0.00 | 95 | 1011.3 |
| 20260510112847 | 54 | 225 | 1.0 | 6.0 | 0.00 | 0.00 | 0.00 | 95 | 1011.4 |
| 20260510112352 | 53 | 221 | 1.0 | 4.0 | 0.00 | 0.00 | 0.00 | 95 | 1011.4 |
| 20260510111858 | 53 | 221 | 1.0 | 5.0 | 0.00 | 0.00 | 0.00 | 95 | 1011.4 |
| 20260510111403 | 53 | 222 | 1.0 | 5.0 | 0.00 | 0.00 | 0.00 | 95 | 1011.6 |
| 20260510110847 | 53 | 222 | 1.0 | 4.0 | 0.00 | 0.00 | 0.00 | 95 | 1011.7 |
| 20260510110343 | 53 | 222 | 1.0 | 6.0 | 0.00 | 0.00 | 0.00 | 95 | 1011.6 |
| 20260510105854 | 53 | 222 | 3.0 | 6.0 | 0.00 | 0.00 | 0.00 | 95 | 1011.5 |
| 20260510105400 | 53 | 224 | 1.0 | 4.0 | 0.00 | 0.00 | 0.00 | 95 | 1011.5 |
| 20260510104844 | 53 | 223 | 0.0 | 2.0 | 0.00 | 0.00 | 0.00 | 95 | 1011.6 |
| 20260510104349 | 53 | 223 | 0.0 | 2.0 | 0.00 | 0.00 | 0.00 | 95 | 1011.6 |
| 20260510103855 | 53 | 223 | 0.0 | 2.0 | 0.00 | 0.00 | 0.00 | 95 | 1011.6 |
| 20260510103400 | 53 | 223 | 0.0 | 2.0 | 0.00 | 0.00 | 0.00 | 95 | 1011.7 |
| 20260510102845 | 52 | 223 | 0.0 | 2.0 | 0.00 | 0.00 | 0.00 | 95 | 1011.7 |
| 20260510102350 | 52 | 223 | 0.0 | 2.0 | 0.00 | 0.00 | 0.00 | 95 | 1011.7 |
| 20260510101852 | 52 | 223 | 0.0 | 3.0 | 0.00 | 0.00 | 0.00 | 95 | 1011.7 |
| 20260510101355 | 52 | 223 | 0.0 | 3.0 | 0.00 | 0.00 | 0.00 | 95 | 1011.7 |
| 20260510100900 | 52 | 223 | 0.0 | 3.0 | 0.00 | 0.00 | 0.00 | 95 | 1011.7 |
| 20260510100340 | 52 | 223 | 0.0 | 3.0 | 0.00 | 0.00 | 0.00 | 95 | 1011.8 |
| 20260510095850 | 52 | 223 | 0.0 | 1.0 | 0.00 | 0.00 | 0.00 | 95 | 1011.7 |
| 20260510095354 | 52 | 223 | 0.0 | 2.0 | 0.00 | 0.00 | 0.00 | 95 | 1011.7 |
| 20260510094857 | 52 | 223 | 0.0 | 4.0 | 0.00 | 0.00 | 0.00 | 95 | 1011.7 |
| 20260510094357 | 52 | 223 | 0.0 | 4.0 | 0.00 | 0.00 | 0.00 | 95 | 1011.6 |
| 20260510093901 | 52 | 223 | 0.0 | 1.0 | 0.00 | 0.00 | 0.00 | 95 | 1011.4 |
| 20260510093344 | 52 | 223 | 0.0 | 3.0 | 0.00 | 0.00 | 0.00 | 95 | 1011.6 |
| 20260510092850 | 52 | 223 | 1.0 | 3.0 | 0.00 | 0.00 | 0.00 | 95 | 1011.5 |
| 20260510092353 | 52 | 223 | 0.0 | 3.0 | 0.00 | 0.00 | 0.00 | 95 | 1011.3 |
| 20260510091857 | 52 | 223 | 0.0 | 4.0 | 0.00 | 0.00 | 0.00 | 95 | 1011.3 |
| 20260510091402 | 52 | 223 | 1.0 | 4.0 | 0.00 | 0.00 | 0.00 | 95 | 1011.1 |
| 20260510090843 | 52 | 222 | 0.0 | 4.0 | 0.00 | 0.00 | 0.00 | 95 | 1011.1 |
| 20260510090344 | 52 | 222 | 1.0 | 4.0 | 0.00 | 0.00 | 0.00 | 95 | 1011.0 |
| 20260510085918 | 52 | 221 | 0.0 | 1.0 | 0.00 | 0.00 | 0.00 | 95 | 1011.0 |
| 20260510085342 | 52 | 221 | 0.0 | 3.0 | 0.00 | 0.00 | 0.00 | 95 | 1010.8 |
| 20260510084846 | 52 | 221 | 0.0 | 6.0 | 0.00 | 0.00 | 0.00 | 95 | 1010.7 |
| 20260510084349 | 52 | 221 | 1.0 | 6.0 | 0.00 | 0.00 | 0.00 | 95 | 1010.7 |
| 20260510083853 | 52 | 220 | 1.0 | 3.0 | 0.00 | 0.00 | 0.00 | 95 | 1010.8 |
| 20260510083356 | 52 | 220 | 0.0 | 2.0 | 0.00 | 0.00 | 0.00 | 95 | 1010.8 |
| 20260510082901 | 53 | 220 | 0.0 | 2.0 | 0.00 | 0.00 | 0.00 | 95 | 1010.8 |
| 20260510082345 | 53 | 220 | 0.0 | 2.0 | 0.00 | 0.00 | 0.00 | 95 | 1010.8 |
| 20260510081851 | 53 | 220 | 0.0 | 2.0 | 0.00 | 0.00 | 0.00 | 95 | 1010.9 |
| 20260510081357 | 53 | 220 | 0.0 | 2.0 | 0.00 | 0.00 | 0.00 | 95 | 1010.9 |
| 20260510080905 | 53 | 220 | 0.0 | 3.0 | 0.00 | 0.00 | 0.00 | 95 | 1011.1 |
| 20260510080345 | 53 | 220 | 1.0 | 3.0 | 0.00 | 0.00 | 0.00 | 95 | 1011.0 |
| 20260510075858 | 53 | 220 | 0.0 | 4.0 | 0.00 | 0.00 | 0.00 | 95 | 1011.0 |
| 20260510075342 | 53 | 220 | 0.0 | 4.0 | 0.00 | 0.00 | 0.00 | 95 | 1010.9 |
| 20260510074847 | 53 | 220 | 0.0 | 1.0 | 0.00 | 0.00 | 0.00 | 95 | 1010.9 |
| 20260510074353 | 53 | 220 | 0.0 | 1.0 | 0.00 | 0.00 | 0.00 | 95 | 1010.9 |
| 20260510073900 | 53 | 220 | 0.0 | 3.0 | 0.00 | 0.00 | 0.00 | 95 | 1010.8 |
| 20260510073345 | 52 | 220 | 0.0 | 3.0 | 0.00 | 0.00 | 0.00 | 95 | 1010.8 |
| 20260510072850 | 53 | 220 | 0.0 | 4.0 | 0.00 | 0.00 | 0.00 | 95 | 1010.8 |
| 20260510072358 | 52 | 220 | 0.0 | 6.0 | 0.00 | 0.00 | 0.00 | 95 | 1010.7 |
| 20260510071844 | 52 | 220 | 1.0 | 6.0 | 0.00 | 0.00 | 0.00 | 95 | 1010.6 |
| 20260510071350 | 52 | 198 | 0.0 | 3.0 | 0.00 | 0.00 | 0.00 | 95 | 1010.4 |
| 20260510070917 | 52 | 198 | 0.0 | 3.0 | 0.00 | 0.00 | 0.00 | 95 | 1010.3 |
| 20260510070354 | 52 | 198 | 0.0 | 1.0 | 0.00 | 0.00 | 0.00 | 95 | 1010.3 |
| 20260510065847 | 52 | 198 | 0.0 | 3.0 | 0.00 | 0.00 | 0.00 | 94 | 1010.3 |
| 20260510065355 | 52 | 198 | 1.0 | 4.0 | 0.00 | 0.00 | 0.00 | 94 | 1010.3 |
| 20260510064858 | 52 | 198 | 0.0 | 2.0 | 0.00 | 0.00 | 0.00 | 94 | 1010.3 |
| 20260510064344 | 52 | 198 | 1.0 | 3.0 | 0.00 | 0.00 | 0.00 | 94 | 1010.5 |
| 20260510063909 | 52 | 198 | 1.0 | 4.0 | 0.00 | 0.00 | 0.00 | 94 | 1010.4 |
| 20260510063353 | 52 | 198 | 1.0 | 4.0 | 0.00 | 0.00 | 0.00 | 94 | 1010.6 |
| 20260510062858 | 52 | 196 | 0.0 | 3.0 | 0.00 | 0.00 | 0.00 | 94 | 1010.7 |
| 20260510062347 | 52 | 196 | 0.0 | 3.0 | 0.00 | 0.00 | 0.00 | 94 | 1010.8 |
| 20260510061910 | 52 | 196 | 0.0 | 2.0 | 0.00 | 0.00 | 0.00 | 94 | 1010.8 |
| 20260510061357 | 52 | 196 | 0.0 | 4.0 | 0.00 | 0.00 | 0.00 | 94 | 1010.8 |
| 20260510060842 | 52 | 196 | 0.0 | 4.0 | 0.00 | 0.00 | 0.00 | 94 | 1010.7 |
| 20260510060343 | 52 | 196 | 0.0 | 1.0 | 0.00 | 0.00 | 0.00 | 94 | 1010.7 |
| 20260510055858 | 52 | 196 | 0.0 | 0.0 | 0.00 | 0.00 | 0.00 | 94 | 1010.6 |
| 20260510055344 | 52 | 196 | 0.0 | 0.0 | 0.00 | 0.00 | 0.00 | 94 | 1010.5 |
| 20260510054850 | 52 | 196 | 0.0 | 0.0 | 0.00 | 0.00 | 0.00 | 94 | 1010.3 |
| 20260510054353 | 52 | 196 | 0.0 | 0.0 | 0.00 | 0.00 | 0.00 | 94 | 1010.3 |
| 20260510053920 | 52 | 196 | 0.0 | 0.0 | 0.00 | 0.00 | 0.00 | 94 | 1010.5 |
| 20260510053342 | 52 | 196 | 0.0 | 0.0 | 0.00 | 0.00 | 0.00 | 94 | 1010.6 |
| 20260510052848 | 52 | 196 | 0.0 | 0.0 | 0.00 | 0.00 | 0.00 | 94 | 1010.8 |
| 20260510052356 | 52 | 196 | 0.0 | 0.0 | 0.00 | 0.00 | 0.00 | 94 | 1010.7 |
| 20260510051859 | 52 | 196 | 0.0 | 0.0 | 0.00 | 0.00 | 0.00 | 94 | 1010.7 |
| 20260510051346 | 52 | 196 | 0.0 | 0.0 | 0.00 | 0.00 | 0.00 | 94 | 1010.7 |
| 20260510050853 | 52 | 196 | 0.0 | 0.0 | 0.00 | 0.00 | 0.00 | 94 | 1010.8 |
| 20260510050354 | 52 | 196 | 0.0 | 0.0 | 0.00 | 0.00 | 0.00 | 94 | 1010.8 |
| 20260510045845 | 52 | 196 | 0.0 | 0.0 | 0.00 | 0.00 | 0.00 | 94 | 1010.8 |
| 20260510045353 | 52 | 196 | 0.0 | 0.0 | 0.00 | 0.00 | 0.00 | 94 | 1010.8 |
| 20260510044858 | 52 | 196 | 0.0 | 0.0 | 0.00 | 0.00 | 0.00 | 94 | 1010.9 |
| 20260510044345 | 52 | 196 | 0.0 | 0.0 | 0.00 | 0.00 | 0.00 | 94 | 1010.9 |
| 20260510043853 | 52 | 196 | 0.0 | 0.0 | 0.00 | 0.00 | 0.00 | 94 | 1010.9 |
| 20260510043356 | 52 | 196 | 0.0 | 0.0 | 0.00 | 0.00 | 0.00 | 94 | 1010.9 |
| 20260510042923 | 52 | 196 | 0.0 | 0.0 | 0.00 | 0.00 | 0.00 | 94 | 1010.9 |
| 20260510042347 | 52 | 196 | 0.0 | 0.0 | 0.00 | 0.00 | 0.00 | 94 | 1010.9 |
| 20260510041851 | 52 | 196 | 0.0 | 0.0 | 0.00 | 0.00 | 0.00 | 94 | 1010.8 |
| 20260510041358 | 52 | 196 | 0.0 | 1.0 | 0.00 | 0.00 | 0.00 | 94 | 1010.8 |
| 20260510040905 | 52 | 196 | 0.0 | 3.0 | 0.00 | 0.00 | 0.00 | 94 | 1010.6 |
| 20260510040402 | 52 | 196 | 0.0 | 1.0 | 0.00 | 0.00 | 0.00 | 94 | 1010.7 |
| 20260510035847 | 52 | 196 | 0.0 | 2.0 | 0.00 | 0.00 | 0.00 | 94 | 1010.8 |
| 20260510035352 | 52 | 196 | 0.0 | 4.0 | 0.00 | 0.00 | 0.00 | 94 | 1010.9 |
| 20260510034857 | 52 | 196 | 1.0 | 4.0 | 0.00 | 0.00 | 0.00 | 94 | 1010.9 |
| 20260510034345 | 52 | 196 | 0.0 | 4.0 | 0.00 | 0.00 | 0.00 | 94 | 1010.8 |
| 20260510033851 | 52 | 196 | 1.0 | 4.0 | 0.00 | 0.00 | 0.00 | 94 | 1010.9 |
| 20260510033355 | 52 | 204 | 0.0 | 2.0 | 0.00 | 0.00 | 0.00 | 94 | 1011.0 |
| 20260510032901 | 53 | 204 | 0.0 | 2.0 | 0.00 | 0.00 | 0.00 | 94 | 1011.0 |
| 20260510032350 | 53 | 204 | 0.0 | 3.0 | 0.00 | 0.00 | 0.00 | 94 | 1011.0 |
| 20260510031855 | 53 | 204 | 1.0 | 4.0 | 0.00 | 0.00 | 0.00 | 94 | 1011.1 |
| 20260510031401 | 53 | 204 | 0.0 | 4.0 | 0.00 | 0.00 | 0.00 | 94 | 1011.2 |
| 20260510030907 | 53 | 205 | 0.0 | 2.0 | 0.00 | 0.00 | 0.00 | 94 | 1011.3 |
| 20260510030344 | 53 | 205 | 0.0 | 2.0 | 0.00 | 0.00 | 0.00 | 94 | 1011.3 |
| 20260510025856 | 53 | 205 | 0.0 | 4.0 | 0.00 | 0.00 | 0.00 | 94 | 1011.3 |
| 20260510025343 | 53 | 205 | 2.0 | 4.0 | 0.00 | 0.00 | 0.00 | 94 | 1011.4 |
| 20260510024847 | 53 | 217 | 0.0 | 3.0 | 0.00 | 0.00 | 0.00 | 94 | 1011.5 |
| 20260510024355 | 53 | 217 | 0.0 | 3.0 | 0.00 | 0.00 | 0.00 | 94 | 1011.5 |
| 20260510023903 | 53 | 217 | 0.0 | 2.0 | 0.00 | 0.00 | 0.00 | 94 | 1011.5 |
| 20260510023349 | 53 | 217 | 0.0 | 2.0 | 0.00 | 0.00 | 0.00 | 94 | 1011.7 |
| 20260510022855 | 53 | 217 | 0.0 | 0.0 | 0.00 | 0.00 | 0.00 | 94 | 1011.7 |
| 20260510022343 | 53 | 217 | 0.0 | 0.0 | 0.00 | 0.00 | 0.00 | 94 | 1011.8 |
| 20260510021847 | 53 | 217 | 0.0 | 0.0 | 0.00 | 0.00 | 0.00 | 94 | 1011.9 |
| 20260510021353 | 53 | 217 | 0.0 | 3.0 | 0.00 | 0.00 | 0.00 | 94 | 1011.8 |
| 20260510020859 | 53 | 217 | 0.0 | 3.0 | 0.00 | 0.00 | 0.00 | 94 | 1011.9 |
| 20260510020340 | 53 | 217 | 0.0 | 5.0 | 0.00 | 0.00 | 0.00 | 94 | 1012.0 |
| 20260510015854 | 53 | 217 | 2.0 | 7.0 | 0.00 | 0.00 | 0.00 | 94 | 1012.0 |
| 20260510015419 | 53 | 214 | 1.0 | 7.0 | 0.00 | 0.00 | 0.00 | 94 | 1012.0 |
| 20260510014904 | 54 | 228 | 2.0 | 8.0 | 0.00 | 0.00 | 0.00 | 94 | 1012.0 |
| 20260510014347 | 54 | 228 | 3.0 | 9.0 | 0.00 | 0.00 | 0.00 | 94 | 1011.9 |
| 20260510013853 | 54 | 244 | 2.0 | 7.0 | 0.00 | 0.00 | 0.00 | 95 | 1012.0 |
| 20260510013418 | 54 | 267 | 1.0 | 4.0 | 0.00 | 0.00 | 0.00 | 95 | 1012.0 |
| 20260510012842 | 54 | 267 | 0.0 | 6.0 | 0.00 | 0.00 | 0.00 | 95 | 1011.9 |
| 20260510012348 | 54 | 267 | 1.0 | 5.0 | 0.00 | 0.00 | 0.00 | 95 | 1011.9 |
| 20260510011853 | 54 | 281 | 1.0 | 5.0 | 0.00 | 0.00 | 0.00 | 95 | 1011.8 |
| 20260510011359 | 54 | 292 | 1.0 | 4.0 | 0.00 | 0.00 | 0.00 | 94 | 1011.8 |
| 20260510010848 | 53 | 293 | 0.0 | 3.0 | 0.00 | 0.00 | 0.00 | 95 | 1011.7 |
| 20260510010348 | 53 | 296 | 0.0 | 4.0 | 0.00 | 0.00 | 0.00 | 94 | 1011.7 |
| 20260510005857 | 53 | 5 | 1.0 | 3.0 | 0.00 | 0.00 | 0.00 | 94 | 1011.8 |
| 20260510005404 | 52 | 24 | 0.0 | 0.0 | 0.00 | 0.00 | 0.00 | 94 | 1011.8 |
| 20260510004849 | 52 | 24 | 0.0 | 0.0 | 0.00 | 0.00 | 0.00 | 94 | 1011.7 |
| 20260510004354 | 52 | 24 | 0.0 | 0.0 | 0.00 | 0.00 | 0.00 | 94 | 1011.7 |
| 20260510003902 | 52 | 24 | 0.0 | 0.0 | 0.00 | 0.00 | 0.00 | 94 | 1011.7 |
| 20260510003344 | 52 | 24 | 0.0 | 0.0 | 0.00 | 0.00 | 0.00 | 94 | 1011.8 |
| 20260510002909 | 52 | 24 | 0.0 | 0.0 | 0.00 | 0.00 | 0.00 | 94 | 1011.7 |
| 20260510002355 | 52 | 24 | 0.0 | 0.0 | 0.00 | 0.00 | 0.00 | 94 | 1011.7 |
| 20260510001921 | 52 | 24 | 0.0 | 0.0 | 0.00 | 0.00 | 0.00 | 94 | 1011.7 |
| 20260510001345 | 52 | 24 | 0.0 | 0.0 | 0.00 | 0.00 | 0.00 | 94 | 1011.8 |
| 20260510000852 | 52 | 24 | 0.0 | 0.0 | 0.00 | 0.00 | 0.00 | 94 | 1011.8 |
| 20260510000351 | 52 | 24 | 0.0 | 0.0 | 0.00 | 0.00 | 0.00 | 94 | 1012.0 |
| 20260509235844 | 52 | 24 | 0.0 | 0.0 | 0.00 | 0.00 | 0.00 | 94 | 1012.0 |
| 20260509235412 | 52 | 24 | 0.0 | 0.0 | 0.00 | 0.00 | 0.00 | 94 | 1012.0 |
| 20260509234857 | 52 | 24 | 0.0 | 1.0 | 0.00 | 0.00 | 0.00 | 94 | 1012.1 |
| 20260509234345 | 52 | 24 | 0.0 | 1.0 | 0.00 | 0.00 | 0.00 | 94 | 1012.2 |
| 20260509233853 | 52 | 24 | 0.0 | 0.0 | 0.00 | 0.00 | 0.00 | 94 | 1012.2 |
| 20260509233358 | 52 | 24 | 0.0 | 0.0 | 0.00 | 0.00 | 0.00 | 94 | 1012.1 |
| 20260509232844 | 52 | 24 | 0.0 | 1.0 | 0.00 | 0.00 | 0.00 | 94 | 1012.0 |
| 20260509232351 | 52 | 24 | 0.0 | 1.0 | 0.00 | 0.00 | 0.00 | 94 | 1012.0 |
| 20260509231915 | 52 | 24 | 0.0 | 0.0 | 0.00 | 0.00 | 0.00 | 94 | 1011.9 |
| 20260509231400 | 52 | 24 | 0.0 | 0.0 | 0.00 | 0.00 | 0.00 | 94 | 1011.9 |
| 20260509230847 | 52 | 24 | 0.0 | 3.0 | 0.00 | 0.00 | 0.00 | 93 | 1011.8 |
| 20260509230406 | 52 | 24 | 0.0 | 3.0 | 0.00 | 0.00 | 0.00 | 93 | 1011.7 |
| 20260509225855 | 52 | 22 | 0.0 | 2.0 | 0.00 | 0.00 | 0.00 | 93 | 1011.6 |
| 20260509225422 | 52 | 22 | 0.0 | 3.0 | 0.00 | 0.00 | 0.00 | 93 | 1011.8 |
| 20260509224846 | 52 | 22 | 0.0 | 3.0 | 0.00 | 0.00 | 0.00 | 93 | 1011.7 |
| 20260509224414 | 52 | 22 | 1.0 | 3.0 | 0.00 | 0.00 | 0.00 | 93 | 1011.6 |
| 20260509223859 | 52 | 23 | 0.0 | 1.0 | 0.00 | 0.00 | 0.00 | 93 | 1011.4 |
| 20260509223401 | 52 | 23 | 0.0 | 1.0 | 0.00 | 0.00 | 0.00 | 93 | 1011.3 |
| 20260509222846 | 52 | 23 | 0.0 | 1.0 | 0.00 | 0.00 | 0.00 | 93 | 1011.2 |
| 20260509222354 | 53 | 23 | 0.0 | 2.0 | 0.00 | 0.00 | 0.00 | 93 | 1011.2 |
| 20260509221856 | 53 | 23 | 0.0 | 2.0 | 0.00 | 0.00 | 0.00 | 93 | 1011.2 |
| 20260509221342 | 53 | 23 | 0.0 | 3.0 | 0.00 | 0.00 | 0.00 | 93 | 1011.1 |
| 20260509220909 | 53 | 23 | 1.0 | 3.0 | 0.00 | 0.00 | 0.00 | 93 | 1011.3 |
| 20260509220347 | 53 | 23 | 0.0 | 1.0 | 0.00 | 0.00 | 0.00 | 93 | 1011.4 |
| 20260509215901 | 53 | 23 | 0.0 | 4.0 | 0.00 | 0.00 | 0.00 | 93 | 1011.4 |
| 20260509215346 | 53 | 23 | 0.0 | 4.0 | 0.00 | 0.00 | 0.00 | 93 | 1011.4 |